Voltar ao catálogo

N2-P-BODY

AtivoCiênciaSSO
NORAD 69929·PAYLOAD·🇺🇸 United States

Lançado Jul 7, 2026 de Vandenberg Space Force Base

Loading…

Próximas Passagens (próximas 24 horas)

TLE

AtualizadoSource: Space-Track

Época: Sep 14, 2026, 12:44 UTC

1 69929U 26156BN  26257.53069681  .00004227  00000-0  41481-3 0  9991
2 69929  97.7463 156.9153 0007341 294.7972  65.2483 14.92712395 10325

Acompanhe N2-P-BODY em tempo real com AllMySat

Download on the App Store